Theta_e
323 323 320 319 323 328 333 340 343 344 341 337 341 345 344 343 342 338 336 336 333 329 322 312 309 307 306 306 305 303 307 305 305 305 308 309 309 308 307 306 306 307 307
325 322 323 326 321 322 337 341 343 342 341 339 344 343 342 340 338 336 336 331 326 320 310 307 307 306 302 302 302 302 302 302 302 303 306 307 306 304 305 307 307 307 307
329 326 329 329 331 333 338 342 343 342 340 342 343 343 339 338 334 333 332 324 317 313 313 316 310 302 300 300 300 299 299 299 301 303 304 301 303 305 307 307 307 307 307
322 327 333 333 333 334 341 341 340 340 341 343 343 339 338 334 330 327 321 316 316 317 311 307 300 299 298 298 299 299 299 298 298 299 300 302 303 303 303 305 307 307 306
323 327 331 331 335 336 333 338 335 334 340 341 338 336 332 328 324 320 315 316 319 315 304 299 298 297 297 298 299 300 300 298 299 302 302 303 302 302 304 304 304 304 306
323 329 330 334 332 331 331 331 341 338 337 336 334 331 324 321 317 315 319 320 309 302 299 298 297 297 297 298 298 300 298 297 301 302 301 302 302 302 303 303 304 302 302
328 331 330 331 326 328 326 331 336 333 332 332 329 323 318 316 317 321 317 306 301 299 297 296 296 296 296 297 296 297 299 300 302 302 303 302 302 301 302 303 302 302 301
326 327 325 327 328 325 328 333 332 326 328 324 319 317 319 318 313 312 306 301 298 296 296 296 296 296 295 295 297 299 300 301 302 304 303 302 301 301 300 300 299 301 302
321 324 326 327 325 322 324 328 330 330 321 316 317 318 311 308 306 304 301 296 296 295 295 295 295 295 295 296 297 298 299 301 303 303 302 300 300 300 298 300 300 298 298
321 320 325 325 327 328 324 319 321 322 322 319 312 309 304 302 298 296 295 295 296 295 294 295 295 296 296 296 296 297 298 300 302 302 299 300 301 299 299 297 297 297 297
319 315 314 321 326 327 322 316 320 321 318 309 304 301 300 298 297 297 297 296 295 295 295 297 297 297 297 297 296 296 297 299 300 299 298 301 300 300 299 298 297 297 297
318 317 313 313 316 318 323 317 314 311 306 303 302 300 300 300 299 299 298 295 295 296 297 297 297 297 297 297 296 295 296 298 298 297 299 298 297 298 298 299 299 298 299
314 316 309 311 314 312 314 314 307 304 305 303 301 300 300 299 298 298 296 297 298 298 297 297 297 297 297 296 295 294 296 297 297 297 297 297 297 298 298 298 300 301 303
315 311 308 310 310 309 307 306 310 308 302 300 299 299 299 298 297 295 297 298 298 298 297 297 296 296 296 295 294 292 295 296 296 296 296 297 298 299 299 299 300 304 304
311 309 308 307 309 308 305 302 300 300 300 298 297 295 294 293 294 296 298 298 298 297 297 296 296 295 296 295 294 292 293 294 296 295 296 296 297 298 298 300 301 302 303
308 308 307 306 303 302 300 299 297 297 296 295 294 295 296 296 297 297 298 298 297 297 296 295 295 295 295 294 293 291 292 295 295 295 295 296 296 297 298 300 300 301 303
307 306 305 304 303 302 301 300 297 296 296 295 295 295 295 296 296 297 296 296 295 295 295 294 294 294 294 293 292 291 294 295 295 295 295 296 296 296 298 298 298 301 303
303 303 303 302 302 301 300 298 298 298 295 293 294 295 295 295 296 296 295 295 295 294 294 294 294 293 293 292 291 292 293 294 294 294 295 295 295 296 297 297 297 299 302
301 301 302 302 301 300 299 298 295 293 292 294 295 295 296 295 295 294 294 294 294 294 293 293 293 292 291 290 291 292 292 291 293 293 294 294 295 295 296 296 297 299 300
306 305 303 302 301 299 293 292 292 293 295 295 295 295 295 295 294 294 294 294 293 293 293 292 292 290 290 290 290 291 292 291 291 292 293 292 293 294 295 295 297 300 300
301 301 300 297 294 292 292 292 293 294 295 295 295 295 295 294 294 293 293 293 293 293 292 291 290 289 289 290 290 291 291 292 291 290 292 292 293 294 295 295 298 300 300
298 296 294 292 291 291 292 294 295 296 296 295 295 295 294 294 293 293 293 292 292 292 291 290 290 289 290 290 290 290 290 291 291 290 291 291 291 294 294 295 297 298 300
298 296 294 292 292 295 297 296 296 295 295 294 294 294 293 293 293 292 291 291 291 290 289 289 289 290 289 289 290 290 290 290 291 290 290 290 290 294 294 294 296 296 298
300 296 296 296 298 298 297 297 295 295 295 294 294 293 293 293 292 292 291 291 291 290 289 290 290 289 289 289 290 290 290 289 290 290 289 289 289 293 294 293 294 294 296
300 299 298 299 298 298 296 295 296 295 294 294 294 293 293 292 292 291 291 290 290 289 290 289 289 289 289 289 289 290 290 289 289 290 290 289 289 290 293 293 294 293 294
300 299 299 299 298 296 297 297 296 295 294 294 293 293 293 292 292 291 291 290 289 289 289 289 289 289 289 288 288 289 290 289 289 289 289 289 289 289 289 293 293 293 293
Wind_Speed
37 48 45 46 49 43 46 46 47 53 48 52 49 44 40 37 31 28 26 22 19 16 14 9 4 2 2 1 1 2 2 4 8 10 9 13 17 22 28 30 25 21 22
37 43 40 42 41 42 46 50 50 60 54 53 50 45 39 32 31 28 25 21 19 18 14 9 6 4 3 3 4 5 6 6 8 10 10 15 21 25 23 21 21 22 25
30 29 31 33 34 38 42 47 51 61 45 51 49 42 34 33 31 27 25 22 18 15 10 5 4 4 4 5 6 6 7 8 9 8 11 16 21 26 24 25 25 23 25
10 21 25 28 31 37 37 45 55 53 54 50 41 37 33 34 32 29 26 23 19 13 9 7 7 7 7 7 6 7 9 11 14 14 19 22 30 32 32 34 31 26 29
18 20 26 27 32 22 37 55 54 57 59 46 40 34 38 35 31 29 25 20 15 12 11 10 9 9 6 7 7 8 11 14 17 21 25 28 32 38 35 34 33 36 30
16 19 25 25 28 27 31 26 50 45 35 43 39 38 38 35 30 25 20 17 15 15 14 12 11 9 7 6 8 9 13 15 18 21 22 23 27 33 30 33 32 35 35
40 32 30 31 39 42 46 48 53 52 49 42 42 42 39 36 28 23 19 19 18 15 15 14 12 11 10 10 11 13 16 17 18 17 18 17 26 28 28 30 29 29 29
23 27 30 28 35 28 28 46 46 49 46 47 45 41 36 31 25 22 20 19 18 18 15 14 12 12 13 12 13 14 18 17 12 13 13 20 27 24 27 23 26 28 25
24 31 32 26 27 40 47 39 39 39 44 43 41 39 35 30 25 22 21 22 22 21 18 17 16 17 16 14 13 16 15 16 12 9 18 25 25 20 23 24 26 27 28
17 24 28 28 35 33 36 42 46 46 44 41 37 33 31 31 26 24 22 23 23 21 21 21 19 19 18 18 18 16 14 17 13 14 19 23 18 17 20 20 21 23 24
15 24 31 34 37 41 38 42 46 46 46 42 39 34 32 30 28 24 21 20 20 21 20 21 21 23 21 21 21 16 14 9 11 16 23 23 25 24 22 19 20 19 19
18 16 25 32 39 41 42 47 47 48 47 43 39 36 30 28 24 21 21 21 22 23 23 23 23 20 18 18 21 16 13 8 14 22 25 29 29 29 27 23 22 18 14
25 25 31 37 39 43 48 48 48 45 42 40 37 34 31 26 23 20 21 25 23 23 24 23 19 18 16 15 19 18 14 16 21 26 27 27 27 28 30 30 26 22 15
23 30 31 37 43 41 43 42 41 38 38 37 35 34 29 26 24 26 26 24 24 22 21 17 16 16 15 15 20 23 16 19 24 26 26 25 26 29 32 32 31 25 24
30 32 35 37 43 45 41 38 37 35 35 36 34 33 32 31 27 23 24 23 20 17 16 15 16 18 18 18 23 24 20 22 25 27 27 29 30 30 34 35 30 27 26
35 36 42 48 47 44 43 39 32 32 30 29 31 29 28 27 29 26 23 19 15 11 15 18 19 20 19 18 23 25 24 23 24 25 28 30 33 31 33 35 32 28 26
36 44 47 45 43 43 42 43 43 31 28 25 27 29 33 31 27 24 19 17 15 14 19 20 19 19 19 18 23 25 24 22 21 22 27 29 34 31 31 36 35 30 27
44 46 45 44 41 41 41 39 38 36 38 37 34 34 31 27 22 18 15 16 19 18 19 18 18 16 15 18 22 24 23 21 22 24 26 28 31 31 29 33 34 31 27
38 40 42 40 39 36 36 36 38 42 43 42 38 33 29 27 23 19 18 20 20 19 17 17 15 14 16 18 18 21 23 25 24 26 28 29 29 30 28 30 30 29 28
33 34 34 35 34 33 37 41 43 43 41 39 36 32 28 25 24 22 21 20 19 17 15 14 16 18 19 19 19 20 21 24 28 27 29 31 28 26 28 29 27 28 30
35 35 34 32 33 38 40 41 42 41 38 34 29 25 22 23 24 22 20 18 15 12 13 15 17 18 19 21 21 20 20 22 27 29 27 28 29 26 27 30 25 26 28
32 28 27 32 36 38 41 40 38 35 31 31 27 21 19 21 20 18 17 15 14 13 14 17 18 18 19 20 21 21 22 22 24 28 26 27 30 25 28 32 26 26 27
24 23 27 36 37 36 31 30 32 34 31 27 24 24 22 21 19 17 17 16 15 15 17 17 18 18 17 19 20 22 24 23 21 25 27 26 30 26 27 31 29 28 26
21 30 34 35 28 28 29 29 32 29 26 24 23 23 22 20 18 17 16 15 17 18 18 17 17 17 17 18 19 20 21 21 17 21 26 25 28 26 27 29 30 31 28
22 27 30 25 25 24 29 35 28 27 25 23 22 22 20 18 17 15 15 14 15 17 17 16 16 17 17 17 17 17 17 21 20 18 23 26 27 30 26 29 27 30 31
25 27 23 24 23 35 30 29 28 25 23 23 22 20 19 18 16 14 12 15 16 16 15 16 16 16 15 15 15 14 14 19 23 19 21 25 27 30 32 29 29 28 30
Wind_Direction
219 218 226 230 228 233 229 217 203 196 190 185 188 188 192 188 190 189 182 178 179 178 185 185 170 184 241 275 245 10 347 8 17 28 25 348 324 320 321 328 338 343 343
212 218 225 231 227 230 225 214 206 181 181 188 183 188 186 185 185 183 179 173 174 165 162 155 154 149 154 131 79 59 43 26 12 7 354 332 332 336 342 351 357 351 349
218 224 230 228 230 227 222 207 195 167 173 185 185 180 186 185 178 175 175 168 161 158 156 154 119 118 132 83 73 55 45 32 22 7 356 347 354 1 358 1 7 2 1
265 230 233 228 226 220 210 180 172 186 189 179 178 176 185 174 173 168 162 158 154 143 132 118 125 116 87 70 56 44 35 33 31 23 13 7 8 4 1 360 359 5 0
285 284 233 218 211 187 160 164 169 169 173 166 170 176 170 167 164 159 154 146 141 133 129 130 116 93 71 60 43 25 33 32 31 27 20 9 4 360 1 356 351 349 3
256 236 199 195 160 167 184 193 169 156 167 161 164 165 161 157 153 149 148 146 137 132 126 107 91 82 77 44 20 30 32 32 30 26 11 359 355 353 351 352 351 351 354
157 160 157 160 152 162 163 170 153 161 160 157 158 157 152 147 155 153 148 136 128 119 97 92 90 79 60 48 46 46 46 51 33 10 7 355 350 351 346 348 352 352 348
152 168 162 172 164 149 153 156 149 151 149 152 150 147 146 144 144 133 128 120 116 109 101 91 84 77 68 66 68 61 60 54 19 16 15 354 348 344 347 348 350 348 353
139 146 149 144 132 155 149 146 146 147 144 142 142 140 135 127 122 123 125 123 115 107 97 87 81 78 71 70 69 68 63 53 26 16 2 352 343 342 351 346 353 355 352
148 141 148 153 146 151 147 144 143 141 141 143 131 127 125 119 118 119 120 115 110 106 99 89 79 72 68 57 51 55 59 44 21 357 350 353 3 3 3 9 2 353 353
133 138 139 156 159 155 146 141 140 143 139 134 128 124 119 117 115 116 113 109 105 104 95 85 75 67 57 46 42 49 48 41 11 359 2 12 20 20 18 16 15 5 352
122 133 130 136 141 144 152 145 141 138 134 129 125 119 117 116 117 115 104 96 98 98 92 84 74 68 53 40 35 37 50 33 16 13 17 26 23 22 19 19 18 19 14
129 136 139 139 140 140 144 145 137 134 129 127 126 127 125 125 120 116 112 112 104 97 90 84 77 69 58 35 32 35 47 29 20 20 29 32 28 24 22 20 25 23 33
126 133 138 135 140 141 135 132 131 129 128 129 130 131 131 131 129 128 120 111 103 100 100 93 85 82 61 39 33 36 49 32 27 36 33 32 30 27 26 25 20 22 21
135 137 141 139 133 132 127 126 129 133 135 138 136 134 133 130 129 127 117 111 110 109 107 102 91 78 62 39 33 34 39 38 41 39 35 31 28 25 28 26 24 20 22
139 139 138 134 131 127 126 122 118 123 131 131 129 130 126 120 119 117 116 119 116 120 109 94 87 75 61 40 34 34 43 47 41 37 33 32 25 23 25 29 25 23 22
143 140 136 132 130 130 128 127 125 125 124 127 127 123 120 118 121 121 122 119 115 117 98 88 88 79 66 44 39 41 50 46 41 41 39 31 23 23 25 27 22 23 26
140 140 138 135 133 131 129 131 134 134 129 124 124 122 119 116 117 119 122 119 106 95 92 91 85 81 69 52 47 52 52 48 46 46 43 38 25 23 25 24 21 22 24
133 131 132 132 131 132 135 136 133 130 126 123 122 118 114 116 115 110 107 100 99 94 90 85 81 74 64 56 60 58 54 49 48 45 43 39 27 22 26 23 21 26 30
139 141 139 135 132 135 136 133 130 127 124 122 120 119 124 129 122 117 109 101 97 96 94 86 76 72 67 61 63 57 53 49 47 44 42 36 31 27 27 23 24 28 29
134 136 129 126 137 138 136 132 129 126 123 121 122 129 137 131 128 123 117 114 111 101 90 84 81 75 71 65 61 57 52 49 46 43 39 33 31 31 32 26 31 36 34
118 115 130 140 138 135 131 128 129 127 126 125 129 133 134 128 124 123 124 121 110 92 84 81 80 76 68 65 61 55 50 47 45 41 38 32 31 34 37 30 38 39 39
123 140 140 138 135 131 133 134 131 129 129 131 131 128 126 116 115 114 111 110 105 94 87 85 78 72 70 65 59 53 47 44 45 42 38 34 33 36 42 35 39 42 42
143 141 136 134 140 144 142 140 138 131 132 133 132 129 124 123 123 120 113 103 99 96 90 83 78 74 70 64 58 52 45 44 49 47 39 36 37 38 43 44 42 43 44
143 141 140 146 145 143 137 131 132 140 141 136 131 128 126 126 121 117 114 109 96 90 86 83 78 72 65 61 58 57 47 43 50 51 45 39 42 42 43 47 47 45 40
146 144 143 148 141 136 131 138 144 144 140 136 132 130 131 126 120 114 102 98 97 93 89 83 74 67 62 59 61 60 59 55 54 55 44 43 44 45 42 47 50 48 43